Location: La Pernelle
(49.6188°N, 1.2999°W)
Time: 13:37:18
(UTC+00:00)

Cosmos 2237 - Pass Details

Date: 12 June 2021
Orbit: 847 x 854 km, 70.8° (Epoch: 04 August)

Event Time Altitude Azimuth Distance (km) Brightness Sun altitude
Exits shadow 22:53:18 - 216° (SW) 2,772 6.5 -15.4°
Reaches altitude 10° 22:54:06 10° 217° (SW) 2,468 6.3 -15.5°
Maximum altitude 22:59:46 71° 301° (WNW) 899 4.5 -15.7°
Drops below altitude 10° 23:05:28 10° 26° (NNE) 2,482 7.4 -16.0°
Sets 23:07:56 0° 29° (NNE) 3,421 8.1 -16.1°
